Location: Doux
(49.5045°N, 4.4321°E)
Time: 14:23:28
(UTC+00:00)

Helios 1A Rocket - Pass Details

Date: 23 May 2024
Orbit: 520 x 543 km, 98.3° (Epoch: 18 June)

Event Time Altitude Azimuth Distance (km) Brightness Sun altitude
Exits shadow 00:09:14 27° 120° (ESE) 1,067 4.0 -19.5°
Maximum altitude 00:10:51 41° 69° (ENE) 787 3.8 -19.5°
Drops below altitude 10° 00:14:30 10° 359° (N) 1,794 6.6 -19.4°
Sets 00:16:41 0° 352° (N) 2,684 7.7 -19.4°
